[[{"header":{"parameterUnit":"m.s-1","parameterCategory":1,"la1":30.2991,"la2":30.254,"lo1":-89.0895,"lo2":-89.0444,"dy":0.0017,"dx":0.0017,"nx":28,"ny":28,"refTime":"2025-04-21T09:00:00:Z","depth":0,"parameterNumber":2,"parameterNumberName":"U-component_of_WINDS"},"data":[0,0,0,0,0,0,0,0,0,0,0,0,0,0,0,0,0,0,0,0,0,0,0,0,0,0,0,0,0,0,0,0,0,0,0,0,0,0,0,0,0,0,0,0,0,0,0,0,0,0,0,0,0,0,0,0,0,0,-4.3601,-4.3602,0,-4.3732,-4.3734,-4.3735,-4.3741,-4.374,-4.3738,-4.3737,-4.3871,-4.3876,-4.3881,0,0,0,0,0,0,0,0,0,0,0,0,0,-4.3356,-4.3361,-4.3601,-4.3602,-4.3604,-4.3732,-4.3734,-4.3736,-4.3742,-4.374,-4.3738,-4.3736,-4.387,-4.3876,-4.3882,0,0,0,0,0,0,0,0,0,0,0,0,0,-4.3473,-4.3362,-4.36,-4.3622,-4.3626,-4.3732,-4.3734,-4.3736,-4.3742,-4.374,-4.3737,-4.3735,-4.3868,-4.3875,-4.3882,-4.3975,0,0,-4.3905,-4.3909,0,0,0,0,0,0,0,0,-4.3466,-4.3482,-4.3618,-4.3621,-4.3625,-4.3718,-4.3697,-4.3816,-4.3743,-4.3698,-4.3737,-4.3734,-4.3822,-4.3833,-4.3863,-4.3981,-4.3987,-4.3906,-4.3911,-4.3914,-4.3916,0,0,0,0,0,0,0,-4.3458,-4.3476,-4.3653,-4.362,-4.3624,-4.3626,-4.364,-4.372,-4.3771,-4.3702,-4.3702,-4.3718,-4.3824,-4.3856,-4.3866,-4.3989,-4.3906,-4.3913,-4.3917,-4.392,-4.4191,-4.4194,0,0,0,0,0,0,-4.3446,-4.3469,-4.3649,-4.3657,-4.3538,-4.3632,-4.3648,-4.3691,-4.3771,-4.378,-4.372,-4.3718,-4.3844,-4.3857,-4.3871,-4.3985,-4.3914,-4.3921,-4.3925,-4.4189,-4.4192,-4.4195,0,0,0,0,0,0,-4.344,-4.3461,-4.3643,-4.3563,-4.3587,-4.3639,-4.3687,-4.3694,-4.3726,-4.3784,-4.3793,-4.3743,-4.3843,-4.386,-4.3949,-4.3989,-4.3924,-4.3931,-4.4186,-4.419,-4.4193,-4.4213,0,0,0,0,0,0,-4.3433,-4.346,-4.3495,-4.3564,-4.3591,-4.3719,-4.3689,-4.3699,-4.3739,-4.3738,-4.3808,-4.3818,-4.3842,-4.3938,-4.3957,-4.3999,-4.3937,-4.4182,-4.4187,-4.4192,-4.4209,-4.4217,-4.4224,0,0,0,0,0,-4.3424,-4.3495,-4.3496,-4.3518,-4.3636,-4.3721,-4.3737,-4.3763,-4.3742,-4.3778,-4.3816,-4.3815,-4.3983,-4.3947,-4.3968,-4.4013,-4.418,-4.4186,-4.4192,-4.4205,-4.4215,-4.4224,0,0,0,0,0,0,-4.3428,-4.3504,-4.3507,-4.3602,-4.3655,-4.3722,-4.3768,-4.3773,-4.3833,-4.383,-4.3861,-4.3876,-4.3965,-4.3998,-4.3957,-4.4108,-4.4079,-4.4089,-4.4082,-4.4092,-4.4099,-4.4089,-4.3943,0,0,0,0,0,-4.3441,-4.3503,-4.3566,-4.3644,-4.3671,-4.3715,-4.3753,-4.377,-4.3826,-4.3848,-4.3892,-4.3947,-4.4012,-4.4054,-4.4117,-4.4215,-4.423,-4.4256,-4.4264,-4.427,-4.4278,-4.4332,-4.4344,-4.4215,-4.4215,-4.4215,0,0,-4.3466,-4.3515,-4.3553,-4.3646,-4.3689,-4.3754,-4.3734,-4.3803,-4.3851,-4.3859,-4.3945,-4.398,-4.4044,-4.4137,-4.4181,-4.4168,-4.4317,-4.4277,-4.4282,-4.4287,-4.4339,-4.4351,-4.4362,-4.4219,-4.4218,-4.4217,0,0,-4.3544,-4.3588,-4.3657,-4.3702,-4.3768,-4.3797,-4.3814,-4.3881,-4.3904,-4.3992,-4.3999,-4.4058,-4.4169,-4.4214,-4.4251,-4.435,-4.4351,-4.4369,-4.4408,-4.4461,-4.4471,-4.448,-4.4514,-4.4526,-4.4378,-4.4378,-4.4378,0,-4.3567,-4.3664,-4.3693,-4.3762,-4.3803,-4.3814,-4.3885,-4.3926,-4.401,-4.4038,-4.4023,-4.4163,-4.4207,-4.4311,-4.4335,-4.4366,-4.4386,-4.436,-4.4467,-4.4477,-4.4486,-4.4519,-4.4532,-4.438,-4.4379,-4.4379,-4.4379,0,-4.3689,-4.3756,-4.3805,-4.3885,-4.3932,-4.4001,-4.4041,-4.4085,-4.4098,-4.4129,-4.4219,-4.4272,-4.4346,-4.4373,-4.4386,-4.448,-4.447,-4.4461,-4.4432,-4.4499,-4.4531,-4.4544,-4.4382,-4.4381,-4.4381,-4.438,0,0,-4.3771,-4.3867,-4.3885,-4.3921,-4.3996,-4.4049,-4.412,-4.4193,-4.423,-4.4288,-4.4348,-4.4443,-4.4435,-4.4478,-4.4497,-4.4543,-4.4617,-4.4529,-4.4531,-4.4542,-4.4723,-4.4728,-4.4742,-4.462,-4.4622,-4.4624,-4.4717,0,-4.3857,-4.3982,-4.4011,-4.4119,-4.4182,-4.4194,-4.4256,-4.4309,-4.4341,-4.4399,-4.4435,-4.4501,-4.4487,-4.4513,-4.4559,-4.4598,-4.4653,-4.4592,-4.4675,-4.4678,-4.4657,-4.4759,-4.4764,-4.4849,-4.473,-4.4732,-4.4734,0,-4.3973,-4.4033,-4.4147,-4.4215,-4.4242,-4.4297,-4.4366,-4.4422,-4.4483,-4.4503,-4.4552,-4.4566,-4.4641,-4.4611,-4.4714,-4.4672,-4.4708,-4.4733,-4.4737,-4.4744,-4.4708,-4.4767,-4.4877,-4.4889,-4.4754,-4.4752,-4.4751,0,-4.402,-4.413,-4.4213,-4.4244,-4.4325,-4.4363,-4.4399,-4.4457,-4.45,-4.4561,-4.4589,-4.4658,-4.4696,-4.4749,-4.4783,-4.4757,-4.4884,-4.4856,-4.4902,-4.4901,-4.4926,-4.4924,-4.5041,-4.4952,-4.4952,-4.4952,-4.4952,0,-4.4112,-4.4181,-4.4235,-4.4286,-4.4364,-4.4397,-4.4474,-4.451,-4.4562,-4.462,-4.4637,-4.4691,-4.4732,-4.4793,-4.4819,-4.4901,-4.4918,-4.4936,-4.4942,-4.4934,-4.4932,-4.4957,-4.4951,-4.4955,-4.4955,-4.4954,-4.4953,0,-4.4176,-4.4216,-4.4307,-4.4376,-4.4396,-4.445,-4.451,-4.456,-4.4593,-4.4666,-4.4686,-4.4738,-4.481,-4.4849,-4.4939,-4.4957,-4.5048,-4.5052,-4.5027,-4.503,-4.5073,-4.5068,-4.521,-4.523,-4.5128,-4.5129,-4.513,0,-4.4231,-4.4285,-4.4361,-4.4401,-4.4437,-4.4501,-4.4545,-4.4581,-4.4625,-4.4699,-4.474,-4.4814,-4.4874,-4.4988,-4.5034,-4.5104,-4.5108,-4.5153,-4.5119,-4.5109,-4.5108,-4.5103,-4.5109,-4.5159,-4.516,-4.516,-4.5161,0,-4.4325,-4.4342,-4.4404,-4.4473,-4.4524,-4.458,-4.4636,-4.4668,-4.4713,-4.4763,-4.4837,-4.4883,-4.4976,-4.5048,-4.5122,-4.5159,-4.5168,-4.5172,-4.5186,-4.5177,-4.516,-4.5169,-4.5042,-4.5168,-4.5167,-4.5167,-4.5166,-4.5166,-4.4386,-4.4434,-4.4495,-4.4563,-4.4609,-4.4661,-4.4712,-4.4751,-4.4814,-4.4891,-4.4909,-4.4987,-4.5048,-4.5148,-4.5187,-4.5249,-4.524,-4.5261,-4.5266,-4.527,-4.5271,-4.5152,-4.5263,-4.5263,-4.5263,-4.5262,-4.5262,0,-4.4479,-4.4519,-4.4582,-4.4659,-4.4713,-4.4718,-4.478,-4.4825,-4.4893,-4.4949,-4.5009,-4.5094,-4.5165,-4.5217,-4.5289,-4.5329,-4.5335,-4.5347,-4.5343,-4.5352,-4.5275,-4.5255,-4.5341,-4.5341,-4.5341,-4.5341,-4.5341,-4.5341,-4.4533,-4.4615,-4.464,-4.4745,-4.4785,-4.4861,-4.4896,-4.4945,-4.499,-4.5084,-4.5143,-4.5177,-4.5232,-4.5309,-4.5374,-4.5388,-4.5413,-4.5424,-4.5438,-4.5365,-4.5357,-4.5349,-4.533,-4.543,-4.543,-4.5509,-4.551,-4.551]},{"header":{"parameterUnit":"m.s-1","parameterCategory":1,"la1":30.2991,"la2":30.254,"lo1":-89.0895,"lo2":-89.0444,"dy":0.0017,"dx":0.0017,"nx":28,"ny":28,"refTime":"2025-04-21T09:00:00:Z","depth":0,"parameterNumber":3,"parameterNumberName":"V-component_of_WINDS"},"data":[0,0,0,0,0,0,0,0,0,0,0,0,0,0,0,0,0,0,0,0,0,0,0,0,0,0,0,0,0,0,0,0,0,0,0,0,0,0,0,0,0,0,0,0,0,0,0,0,0,0,0,0,0,0,0,0,0,0,4.2915,4.2916,0,4.3026,4.3027,4.3028,4.3043,4.3042,4.3041,4.304,4.3149,4.3153,4.3156,0,0,0,0,0,0,0,0,0,0,0,0,0,4.2713,4.2717,4.2915,4.2916,4.2918,4.3025,4.3027,4.3028,4.3043,4.3042,4.3041,4.3039,4.3147,4.3152,4.3157,0,0,0,0,0,0,0,0,0,0,0,0,0,4.281,4.2718,4.2914,4.2938,4.2941,4.3025,4.3027,4.3029,4.3043,4.3042,4.304,4.3039,4.3146,4.3152,4.3157,4.3224,0,0,4.3175,4.3178,0,0,0,0,0,0,0,0,4.2804,4.2817,4.2933,4.2936,4.294,4.3019,4.2996,4.3094,4.3044,4.3004,4.304,4.3038,4.3107,4.3115,4.314,4.3229,4.3234,4.3176,4.3179,4.3182,4.3183,0,0,0,0,0,0,0,4.2798,4.2812,4.2958,4.2935,4.2939,4.2942,4.2954,4.3015,4.3063,4.3008,4.3009,4.3022,4.3108,4.3134,4.3142,4.3236,4.3175,4.3181,4.3184,4.3186,4.3387,4.3389,0,0,0,0,0,0,4.2787,4.2807,4.2955,4.2962,4.2867,4.2947,4.296,4.2995,4.3062,4.3071,4.3023,4.3022,4.3125,4.3135,4.3146,4.323,4.3182,4.3187,4.319,4.3386,4.3388,4.339,0,0,0,0,0,0,4.2783,4.28,4.295,4.2885,4.2904,4.2952,4.2991,4.2998,4.3024,4.3074,4.3082,4.3041,4.3124,4.3138,4.3205,4.3234,4.319,4.3195,4.3383,4.3386,4.3389,4.3398,0,0,0,0,0,0,4.2777,4.2799,4.2825,4.2885,4.2908,4.3009,4.2993,4.3001,4.3035,4.3034,4.3093,4.3101,4.3124,4.3197,4.3211,4.3241,4.3199,4.3381,4.3385,4.3388,4.3395,4.34,4.3405,0,0,0,0,0,4.277,4.2821,4.2826,4.2844,4.2942,4.301,4.3023,4.305,4.3037,4.3063,4.3096,4.3099,4.3229,4.3203,4.322,4.3252,4.3379,4.3384,4.3388,4.3393,4.3399,4.3405,0,0,0,0,0,0,4.2761,4.283,4.2836,4.2909,4.2954,4.3013,4.3047,4.3055,4.3104,4.3101,4.3131,4.3144,4.321,4.3238,4.3209,4.3321,4.3303,4.331,4.3301,4.3307,4.3312,4.3304,4.3204,0,0,0,0,0,4.2768,4.2819,4.2876,4.2935,4.2958,4.2999,4.3029,4.3046,4.3093,4.3112,4.3149,4.3194,4.3245,4.3278,4.3327,4.3399,4.3412,4.3429,4.3434,4.3438,4.3444,4.3486,4.3494,4.3404,4.3404,4.3404,0,0,4.2782,4.2826,4.2856,4.2935,4.2971,4.3023,4.3014,4.3069,4.3107,4.312,4.3187,4.3216,4.3267,4.3338,4.3371,4.3363,4.3473,4.3444,4.3446,4.345,4.3491,4.3499,4.3507,4.3407,4.3406,4.3406,0,0,4.2835,4.2873,4.2927,4.2965,4.3022,4.305,4.3063,4.3121,4.3141,4.3209,4.322,4.3266,4.3353,4.339,4.342,4.3489,4.3494,4.3504,4.353,4.357,4.3577,4.3583,4.3609,4.3617,4.351,4.351,4.351,0,4.2845,4.2925,4.2954,4.3009,4.3043,4.3059,4.3115,4.3149,4.3219,4.3242,4.3232,4.3343,4.3379,4.3459,4.3476,4.35,4.3515,4.3497,4.3574,4.3581,4.3587,4.3612,4.3621,4.3511,4.3511,4.3511,4.3511,0,4.2935,4.299,4.3027,4.3096,4.3134,4.3189,4.3226,4.3261,4.3275,4.3303,4.3373,4.3417,4.3476,4.3496,4.3509,4.3579,4.3572,4.3568,4.355,4.3596,4.362,4.3629,4.3512,4.3512,4.3512,4.3512,0,0,4.2984,4.307,4.3083,4.3116,4.3181,4.3223,4.3279,4.3339,4.3369,4.3416,4.3464,4.3538,4.3535,4.357,4.3587,4.3622,4.3675,4.3614,4.3616,4.3624,4.3756,4.3759,4.3769,4.3679,4.3681,4.3683,4.3751,0,4.3044,4.3146,4.3175,4.326,4.3312,4.3328,4.3377,4.3422,4.345,4.3497,4.3527,4.358,4.3572,4.3593,4.3628,4.3661,4.3702,4.3657,4.3723,4.3725,4.371,4.3781,4.3784,4.3847,4.3761,4.3762,4.3763,0,4.3128,4.318,4.3271,4.3331,4.3354,4.3397,4.3456,4.3501,4.3552,4.357,4.361,4.3625,4.3683,4.3662,4.3743,4.3712,4.374,4.3761,4.3764,4.3771,4.3747,4.3791,4.3867,4.3877,4.3778,4.3777,4.3776,0,4.3156,4.3249,4.3315,4.3342,4.3414,4.3444,4.3475,4.3525,4.356,4.361,4.3633,4.3689,4.372,4.3762,4.3792,4.3774,4.387,4.3852,4.3887,4.3886,4.3906,4.3904,4.3989,4.3924,4.3924,4.3924,4.3924,0,4.3221,4.3276,4.3329,4.337,4.3433,4.3465,4.3526,4.3557,4.3602,4.3649,4.3666,4.371,4.3746,4.3794,4.3818,4.3882,4.3895,4.3911,4.3916,4.391,4.3908,4.3929,4.3925,4.3926,4.3926,4.3925,4.3925,0,4.3263,4.33,4.3375,4.3437,4.3454,4.3497,4.3551,4.3591,4.362,4.368,4.3695,4.3741,4.3799,4.3833,4.3906,4.3921,4.3992,4.3996,4.3976,4.3978,4.4011,4.4008,4.4113,4.4128,4.4053,4.4053,4.4054,0,4.3302,4.3345,4.3413,4.3447,4.3479,4.3532,4.3569,4.3603,4.364,4.3703,4.3735,4.3795,4.3844,4.3936,4.3975,4.4031,4.4036,4.4069,4.4044,4.4037,4.4037,4.4034,4.4039,4.4073,4.4073,4.4074,4.4074,0,4.3367,4.3385,4.3437,4.3497,4.3541,4.3589,4.3637,4.3663,4.3705,4.3746,4.3806,4.3845,4.392,4.3979,4.4039,4.4069,4.4079,4.4082,4.4093,4.4087,4.4074,4.4082,4.3988,4.4079,4.4079,4.4079,4.4078,4.4078,4.341,4.3449,4.3504,4.3563,4.3603,4.3648,4.3689,4.3725,4.3777,4.3842,4.3859,4.3923,4.3974,4.4055,4.4087,4.4137,4.4132,4.4147,4.4151,4.4155,4.4156,4.4066,4.4148,4.4148,4.4148,4.4148,4.4148,0,4.3477,4.3514,4.3567,4.3635,4.3681,4.3688,4.3742,4.378,4.3836,4.3884,4.3933,4.4003,4.4061,4.4105,4.4164,4.4196,4.4202,4.421,4.4208,4.4215,4.4158,4.4143,4.4204,4.4204,4.4204,4.4204,4.4204,4.4204,4.3517,4.3586,4.361,4.3698,4.3734,4.3798,4.3829,4.387,4.3909,4.3987,4.4036,4.4065,4.4111,4.4174,4.4227,4.4239,4.426,4.4268,4.428,4.4225,4.4219,4.4213,4.4199,4.4272,4.4272,4.4333,4.4334,4.4334]}]]